Temp
8 8 8 8 8 8 7 7 7 7 7 6 6 6 5 5 5 5 5 5 5 5 6 6 6 6 6 6 6 6 7 7 7 7 7 7 7 7 8 8 8 8 8 8 8 8 8 8 8 9 9 10 10 10 11 11 11 11 11 11 11 11 11 11 11 11 11 11 11
8 8 8 8 8 8 8 7 7 7 7 6 6 5 5 5 5 5 5 5 5 5 5 5 5 5 6 6 6 6 6 6 7 7 7 7 7 7 7 8 8 8 8 8 8 8 8 8 8 8 8 9 9 10 10 11 11 11 11 11 11 11 11 11 11 11 11 11 11
8 8 8 8 8 8 8 7 7 8 7 6 6 5 5 5 5 5 5 5 5 5 5 5 5 5 5 6 6 6 6 6 6 7 7 7 7 7 7 7 7 8 8 8 8 8 8 8 8 8 8 8 8 9 9 10 10 10 11 11 11 11 11 11 11 11 11 11 11
8 8 8 8 8 8 8 7 7 8 7 7 6 6 5 5 5 5 5 5 5 5 5 5 5 5 5 5 5 5 6 6 6 6 6 7 7 7 7 7 7 7 7 8 8 8 8 8 8 8 8 8 8 8 9 9 9 10 10 10 10 11 11 11 11 11 11 11 11
8 8 8 8 8 8 8 8 7 7 8 7 7 7 6 5 5 5 5 5 5 5 5 5 4 5 5 5 5 5 5 5 6 6 6 6 6 7 7 7 7 7 7 7 7 8 8 8 8 8 8 8 8 8 8 8 8 9 9 9 10 10 10 10 10 11 11 11 11
8 8 8 8 8 8 8 8 8 8 8 8 8 7 7 6 5 5 5 5 5 5 5 5 5 4 5 5 5 5 5 5 5 5 6 6 6 6 6 6 6 6 7 7 7 7 8 8 8 8 8 8 8 8 8 8 8 8 8 8 9 9 9 9 10 10 10 11 11
8 8 8 8 8 8 8 8 8 8 8 8 8 8 7 7 6 5 5 5 5 5 5 5 5 5 5 5 5 5 5 5 5 5 5 6 6 6 6 6 6 6 6 6 7 7 7 7 8 8 8 8 8 8 8 8 8 8 8 8 8 8 8 9 9 9 10 10 10
7 8 8 8 8 8 8 8 8 8 7 8 8 8 8 7 6 6 5 5 5 5 5 5 5 5 5 5 5 5 5 5 5 5 5 5 5 6 6 6 6 6 6 6 6 6 7 7 7 7 7 7 7 7 7 8 8 8 8 8 8 8 8 8 9 9 10 10 10
7 7 8 8 8 8 8 8 8 8 8 7 8 8 8 7 7 6 6 5 5 5 5 5 5 5 5 5 5 5 5 5 5 5 5 5 5 5 6 6 6 6 6 6 6 6 6 7 7 7 7 7 7 7 7 7 8 8 8 8 8 8 8 8 8 9 9 10 10
7 7 7 7 8 8 8 8 8 8 8 7 8 8 8 8 7 7 6 6 6 5 5 5 5 5 5 5 5 5 5 5 5 5 5 5 5 5 5 6 6 6 6 6 6 6 6 7 7 7 7 7 7 7 7 7 7 7 8 8 8 8 8 8 8 8 8 9 9
7 7 7 7 7 7 7 8 8 8 8 8 8 8 8 8 7 7 7 6 6 6 6 5 5 5 5 5 5 5 5 5 5 5 5 5 5 5 5 5 6 6 6 6 6 6 6 6 7 7 7 7 7 7 7 7 7 7 7 7 8 8 8 8 8 8 8 8 8
7 7 7 7 7 7 7 7 7 8 8 8 8 8 8 8 8 7 7 7 6 6 6 6 5 5 5 5 5 5 5 5 5 5 5 5 5 5 5 5 5 6 6 6 6 6 6 6 6 7 7 7 7 7 7 7 7 7 7 7 7 8 8 8 8 8 8 8 8
6 6 7 7 7 7 7 7 7 7 7 7 8 7 7 7 7 8 7 7 7 6 6 6 6 6 5 5 5 5 5 5 5 5 5 5 5 5 5 5 5 5 6 6 6 6 6 6 6 6 7 7 7 7 7 7 7 7 6 6 7 7 7 8 8 8 8 8 8
6 6 6 7 7 7 7 7 7 7 7 7 7 7 7 7 7 7 7 7 7 7 7 6 6 6 6 5 5 5 5 5 5 5 5 5 5 5 5 5 5 5 5 5 6 6 6 6 6 6 6 7 7 7 7 7 7 7 7 6 6 6 7 7 7 8 8 8 8
6 6 6 6 7 7 7 7 7 7 7 7 7 7 7 7 7 7 7 7 7 7 7 7 6 6 6 6 5 5 5 5 5 5 5 5 5 5 5 5 5 5 5 5 5 5 6 6 6 6 6 6 7 7 7 7 7 7 7 7 6 6 6 6 7 7 7 8 8
6 6 6 6 6 7 7 7 7 7 7 7 7 7 7 7 7 7 7 7 7 7 7 7 7 6 6 6 6 6 5 5 5 5 5 5 5 5 5 5 5 5 5 5 5 5 5 5 5 6 6 6 6 7 7 7 7 7 7 7 7 7 6 6 6 6 7 7 7
6 6 6 6 6 6 7 7 7 7 7 7 7 7 7 7 7 7 7 7 7 7 7 7 7 7 7 6 6 6 6 5 5 5 5 5 5 5 5 5 5 4 4 4 4 4 4 5 5 5 5 6 6 6 6 7 7 7 7 7 7 7 7 6 6 6 6 6 7
6 6 6 6 6 6 6 7 7 7 7 7 7 7 7 7 7 7 7 7 7 7 7 7 7 7 7 6 6 6 6 5 5 5 5 5 5 5 5 5 4 4 4 4 4 4 4 4 4 5 5 5 5 6 6 6 7 7 7 7 7 7 7 7 6 6 6 6 6
6 6 6 6 6 6 6 6 7 7 7 7 7 7 7 7 7 7 7 7 7 7 7 7 7 7 7 7 6 6 6 5 5 5 5 5 4 4 4 4 4 4 4 4 4 4 4 4 4 4 4 5 5 5 5 6 6 6 7 7 7 7 7 7 7 6 6 6 6
6 6 6 6 6 6 6 6 6 6 6 6 6 6 6 7 7 7 7 7 6 6 6 6 6 7 7 7 6 6 6 6 5 5 5 4 4 4 4 4 4 4 4 4 4 4 4 4 4 4 4 4 4 5 5 5 5 6 6 6 6 7 7 7 7 7 6 6 6
6 6 6 6 6 6 6 6 6 6 6 6 6 6 6 6 6 6 6 6 6 6 6 6 6 6 6 6 6 6 6 6 5 5 5 4 4 4 4 4 4 4 4 4 4 4 4 4 4 4 4 4 4 4 4 5 5 5 5 6 6 6 6 6 6 6 6 6 6
6 6 6 6 6 6 6 6 6 6 6 6 6 6 6 6 6 6 6 6 6 6 6 6 6 6 6 6 6 6 6 6 5 5 5 4 4 4 4 4 4 4 4 4 4 4 4 4 4 4 3 3 4 4 4 4 4 5 5 5 5 6 6 6 6 6 6 6 6
6 6 6 6 5 5 5 5 5 5 5 6 6 6 6 6 6 6 6 6 6 6 6 6 6 6 6 6 6 6 6 6 6 5 5 5 4 4 4 4 4 4 4 4 4 4 4 4 4 4 3 3 3 3 3 4 4 4 4 4 5 5 5 5 5 6 6 6 6
6 6 6 6 5 5 5 5 5 5 5 5 6 6 6 6 6 6 6 6 6 6 6 6 6 6 6 6 6 6 6 6 6 5 5 5 4 4 4 4 4 4 4 4 4 4 4 4 4 4 4 3 3 3 3 3 3 4 4 4 4 4 5 5 5 5 5 5 5
6 6 6 6 5 5 5 5 5 5 5 5 5 5 6 6 6 6 6 6 6 6 6 6 6 6 6 6 6 6 6 6 6 6 5 5 5 4 4 4 4 3 3 3 3 4 4 4 4 4 4 3 3 3 3 3 3 3 4 4 4 4 4 4 4 4 5 5 5
6 6 6 6 5 5 5 5 5 5 5 5 5 5 5 5 5 5 6 6 6 6 6 6 6 6 5 5 6 6 6 6 6 6 6 5 5 5 4 4 4 3 3 3 3 3 3 3 4 4 3 3 3 3 3 3 3 3 3 3 3 4 4 4 4 4 4 4 4
6 6 6 6 5 5 5 5 5 5 5 5 5 5 5 5 5 5 5 5 6 6 6 6 6 6 5 5 5 5 6 6 6 6 6 5 5 5 4 4 4 4 3 3 3 3 3 3 3 3 3 3 3 3 3 3 3 3 3 3 3 3 3 3 4 4 4 4 4
5 5 5 5 5 5 5 5 5 5 5 5 5 5 5 5 5 5 5 5 5 5 5 6 6 6 5 5 5 5 5 5 5 5 5 5 5 5 5 4 4 4 3 3 3 3 3 3 3 3 3 3 3 3 3 3 3 3 3 3 3 3 3 3 3 3 3 4 4
5 5 5 5 5 5 5 5 5 5 5 5 5 4 4 4 5 5 5 5 5 5 5 6 6 6 5 5 5 5 5 5 5 5 5 5 5 5 5 4 4 4 4 3 3 3 3 3 3 3 3 3 3 3 3 3 3 3 3 3 3 3 3 3 3 3 3 3 3
5 5 5 5 5 5 5 5 5 5 4 4 4 4 4 4 4 5 5 5 5 5 5 5 5 5 5 5 5 5 5 5 5 5 5 5 5 5 4 4 4 4 4 3 3 3 3 3 3 3 3 3 3 3 3 3 3 3 3 3 3 3 3 3 3 3 3 3 3
5 4 4 4 5 5 5 5 5 4 4 4 4 4 4 4 4 5 5 5 5 5 5 5 5 5 5 5 5 5 4 4 4 5 5 5 5 4 4 4 4 4 4 4 3 3 3 3 3 3 3 3 3 3 3 3 3 3 3 3 3 3 3 3 3 3 3 3 3
4 4 4 4 4 4 4 4 4 4 4 4 4 4 4 4 4 4 5 5 5 5 5 5 5 5 5 5 5 5 4 4 4 4 4 4 4 4 4 4 4 4 4 4 3 3 3 3 3 3 3 3 3 3 3 3 3 3 3 3 3 3 3 3 3 3 3 3 3
5 4 4 4 4 4 4 4 4 4 4 4 3 3 3 4 4 4 4 4 4 4 5 5 5 5 5 5 5 5 4 4 4 4 4 4 4 4 4 4 4 4 4 4 3 3 3 3 3 3 3 3 3 3 3 3 3 3 3 3 3 3 3 3 3 3 3 3 3
5 4 4 4 4 4 4 4 4 4 3 3 3 3 3 3 3 4 4 4 4 4 4 5 5 5 5 5 5 4 4 4 4 4 4 4 4 4 4 4 4 4 3 3 3 3 3 3 3 3 3 3 3 2 2 3 3 3 3 3 3 3 3 3 3 3 3 3 3
5 5 4 4 4 4 4 3 3 3 3 3 3 3 3 3 3 4 4 4 4 4 4 4 4 4 4 4 4 4 4 4 4 3 3 4 4 4 4 4 3 3 3 3 3 3 3 3 3 3 3 3 3 3 2 2 3 3 3 3 3 3 3 3 3 3 3 3 3
5 5 5 4 4 4 4 3 3 3 3 3 3 3 3 3 3 3 3 3 3 3 4 4 4 4 4 4 4 4 4 4 4 3 3 3 3 3 3 3 3 3 3 3 3 3 3 3 3 3 3 3 3 3 2 2 3 3 3 3 3 3 3 3 3 3 3 3 3
5 5 4 4 4 4 3 3 3 3 3 3 3 3 3 3 3 3 3 3 3 3 3 4 4 4 4 4 4 4 4 4 4 3 3 3 3 3 3 3 3 3 3 3 3 3 3 3 3 3 3 3 3 3 2 3 3 3 3 3 3 3 3 3 3 3 3 3 3
5 5 4 4 4 4 3 3 3 3 3 3 3 3 3 3 3 3 3 3 3 3 3 3 4 4 4 4 4 4 4 4 3 3 3 3 3 3 3 3 3 3 3 3 3 3 3 3 2 2 3 3 3 3 3 3 3 3 3 3 3 3 3 3 3 3 3 3 3
4 4 4 4 4 3 3 3 3 3 3 3 3 2 2 2 3 3 3 3 3 3 3 3 3 4 4 4 4 4 3 3 3 3 3 3 3 3 3 3 2 2 2 2 2 2 2 2 2 2 3 3 3 3 3 3 3 3 3 3 3 3 3 2 2 2 2 2 2
4 4 4 4 4 3 3 3 3 3 3 3 2 2 2 2 2 2 2 2 2 2 2 3 3 3 3 3 3 3 3 3 3 3 3 3 3 2 2 2 2 2 2 2 2 2 2 2 2 2 2 3 2 2 2 3 3 3 3 3 3 3 2 2 2 2 2 2 2
4 4 4 4 4 4 4 4 4 3 3 2 2 2 2 2 2 2 2 2 2 2 2 2 2 2 2 2 3 3 3 3 3 3 3 3 2 2 2 2 2 2 2 2 2 2 2 2 2 2 2 2 2 2 2 3 3 3 3 2 2 2 2 2 2 2 2 2 2
Height
1450 1450 1449 1449 1449 1449 1448 1448 1447 1447 1447 1447 1447 1447 1447 1447 1446 1446 1447 1447 1447 1447 1447 1447 1447 1447 1446 1446 1446 1446 1446 1446 1446 1445 1445 1445 1445 1446 1446 1446 1446 1446 1447 1447 1447 1448 1448 1448 1448 1448 1448 1448 1449 1449 1449 1450 1451 1452 1453 1454 1455 1456 1457 1458 1459 1461 1463 1464 1466
1450 1450 1449 1449 1449 1449 1448 1448 1447 1447 1447 1447 1447 1447 1447 1447 1446 1446 1446 1446 1447 1447 1447 1447 1447 1447 1446 1446 1446 1446 1446 1446 1446 1445 1445 1445 1445 1445 1446 1446 1446 1447 1447 1447 1448 1448 1448 1448 1449 1449 1448 1448 1448 1449 1449 1449 1450 1451 1452 1453 1454 1455 1456 1458 1459 1460 1462 1464 1465
1450 1450 1449 1449 1449 1449 1448 1448 1447 1447 1447 1447 1447 1447 1447 1447 1446 1446 1446 1446 1446 1447 1447 1447 1447 1447 1446 1446 1446 1446 1446 1445 1445 1445 1445 1445 1445 1445 1446 1446 1446 1447 1447 1447 1447 1448 1448 1448 1449 1449 1449 1449 1449 1448 1448 1449 1449 1450 1451 1452 1453 1454 1455 1456 1458 1459 1460 1462 1464
1450 1450 1449 1449 1449 1449 1448 1448 1448 1447 1447 1447 1447 1447 1446 1446 1446 1446 1446 1446 1446 1446 1447 1447 1447 1446 1446 1446 1446 1446 1446 1446 1445 1445 1445 1445 1445 1446 1446 1446 1446 1446 1447 1447 1447 1448 1448 1448 1449 1449 1449 1449 1449 1449 1449 1449 1449 1449 1450 1451 1452 1453 1454 1455 1456 1457 1458 1459 1461
1450 1449 1449 1449 1449 1449 1449 1448 1448 1447 1447 1447 1447 1447 1446 1446 1446 1446 1446 1446 1446 1446 1446 1446 1446 1446 1446 1446 1446 1446 1446 1446 1446 1445 1445 1445 1445 1446 1446 1446 1446 1446 1446 1447 1447 1447 1448 1448 1448 1449 1449 1449 1449 1449 1449 1449 1449 1449 1450 1451 1451 1452 1453 1454 1454 1455 1456 1457 1458
1449 1449 1449 1449 1449 1449 1448 1448 1448 1447 1447 1447 1446 1446 1446 1446 1446 1446 1446 1446 1446 1446 1446 1446 1446 1446 1446 1446 1446 1446 1446 1446 1446 1446 1445 1445 1445 1445 1446 1446 1446 1446 1446 1446 1447 1447 1447 1448 1448 1448 1449 1449 1449 1449 1449 1449 1450 1450 1450 1451 1451 1452 1453 1453 1454 1454 1454 1455 1457
1449 1449 1449 1449 1449 1448 1448 1448 1448 1448 1447 1446 1446 1446 1446 1446 1446 1446 1446 1446 1446 1446 1446 1446 1446 1446 1446 1446 1445 1445 1445 1445 1446 1446 1445 1445 1445 1445 1446 1446 1446 1447 1447 1447 1446 1447 1447 1447 1448 1448 1448 1449 1449 1449 1449 1450 1450 1451 1451 1451 1452 1452 1453 1453 1453 1454 1454 1455 1458
1448 1448 1448 1448 1448 1448 1448 1448 1448 1448 1447 1446 1446 1446 1446 1446 1446 1446 1446 1446 1446 1446 1446 1446 1446 1446 1446 1445 1445 1445 1445 1445 1445 1445 1445 1445 1445 1445 1445 1446 1446 1446 1447 1447 1447 1447 1447 1447 1447 1448 1448 1449 1449 1449 1449 1450 1450 1451 1451 1452 1452 1453 1453 1453 1454 1454 1454 1456 1458
1447 1448 1448 1448 1448 1448 1448 1448 1448 1447 1447 1447 1446 1446 1446 1446 1446 1446 1446 1446 1446 1446 1446 1446 1445 1445 1445 1445 1445 1445 1445 1445 1445 1445 1445 1445 1445 1445 1445 1445 1445 1446 1446 1447 1447 1447 1447 1447 1447 1447 1448 1448 1449 1449 1449 1450 1450 1451 1452 1452 1453 1453 1454 1454 1454 1454 1454 1455 1457
1446 1447 1447 1447 1447 1447 1447 1447 1447 1447 1447 1447 1446 1446 1446 1445 1445 1445 1445 1445 1445 1445 1445 1445 1445 1445 1445 1445 1445 1445 1445 1445 1445 1445 1445 1445 1445 1445 1445 1445 1445 1445 1446 1446 1447 1447 1447 1447 1447 1447 1448 1448 1449 1449 1449 1450 1450 1451 1452 1452 1453 1454 1454 1454 1455 1454 1455 1455 1456
1445 1446 1446 1446 1446 1446 1446 1446 1446 1447 1446 1446 1446 1446 1445 1445 1445 1445 1445 1445 1445 1445 1445 1445 1445 1445 1445 1445 1445 1445 1445 1445 1444 1444 1444 1444 1444 1444 1444 1445 1445 1445 1445 1445 1446 1446 1447 1447 1447 1447 1448 1448 1448 1449 1449 1449 1450 1451 1451 1452 1453 1454 1454 1455 1455 1455 1455 1456 1457
1444 1444 1444 1445 1445 1445 1445 1446 1446 1446 1446 1446 1446 1446 1445 1445 1445 1445 1445 1445 1445 1445 1445 1444 1444 1444 1444 1444 1444 1444 1444 1444 1444 1444 1444 1444 1444 1444 1444 1444 1444 1445 1445 1445 1445 1446 1446 1447 1447 1447 1448 1448 1448 1448 1449 1449 1450 1450 1451 1452 1453 1454 1454 1455 1455 1456 1456 1457 1458
1443 1443 1443 1444 1444 1444 1444 1445 1445 1445 1445 1445 1445 1445 1445 1445 1445 1444 1444 1444 1444 1444 1444 1444 1444 1444 1444 1444 1444 1444 1444 1444 1444 1444 1444 1444 1444 1444 1444 1444 1444 1444 1444 1445 1445 1445 1445 1446 1447 1447 1447 1448 1448 1448 1448 1449 1449 1450 1451 1452 1452 1453 1454 1455 1455 1456 1457 1457 1458
1441 1441 1442 1442 1443 1443 1443 1444 1444 1444 1444 1445 1445 1445 1445 1445 1444 1444 1444 1444 1444 1444 1444 1444 1444 1444 1444 1444 1444 1444 1444 1444 1444 1444 1444 1444 1444 1444 1444 1444 1444 1444 1444 1444 1444 1445 1445 1445 1446 1447 1447 1447 1448 1448 1448 1448 1449 1449 1450 1451 1452 1453 1454 1454 1455 1456 1457 1458 1458
1439 1440 1440 1441 1441 1442 1442 1443 1443 1443 1444 1444 1444 1444 1444 1444 1444 1444 1444 1444 1444 1444 1444 1444 1444 1444 1444 1444 1444 1444 1444 1444 1444 1444 1444 1444 1444 1444 1444 1444 1444 1444 1444 1444 1444 1444 1445 1445 1445 1446 1446 1447 1447 1448 1448 1448 1449 1449 1450 1451 1452 1453 1454 1454 1455 1456 1456 1457 1458
1438 1439 1439 1439 1440 1440 1441 1441 1442 1442 1443 1443 1443 1444 1444 1444 1444 1444 1443 1443 1443 1443 1443 1443 1443 1443 1443 1443 1444 1444 1444 1444 1444 1444 1444 1444 1444 1444 1444 1444 1444 1444 1444 1444 1444 1444 1444 1445 1445 1445 1446 1446 1447 1447 1448 1448 1448 1449 1449 1450 1451 1452 1453 1454 1455 1455 1456 1457 1458
1437 1437 1438 1438 1439 1439 1439 1440 1440 1441 1442 1442 1442 1443 1443 1443 1443 1443 1443 1443 1443 1443 1443 1443 1443 1443 1443 1443 1443 1443 1443 1443 1443 1443 1444 1444 1444 1444 1444 1444 1444 1444 1444 1444 1444 1444 1444 1444 1445 1445 1445 1446 1446 1447 1447 1448 1448 1449 1449 1450 1451 1452 1453 1454 1454 1455 1456 1456 1457
1435 1436 1436 1436 1437 1438 1438 1439 1439 1440 1440 1441 1441 1442 1442 1442 1442 1443 1443 1443 1443 1442 1442 1442 1442 1442 1442 1442 1442 1442 1443 1443 1443 1443 1443 1443 1443 1444 1444 1444 1444 1444 1444 1444 1444 1444 1444 1444 1444 1445 1445 1446 1446 1446 1447 1447 1448 1448 1449 1450 1450 1451 1452 1453 1454 1454 1455 1456 1457
1433 1434 1434 1435 1435 1436 1437 1437 1438 1439 1439 1439 1440 1440 1441 1441 1442 1442 1442 1442 1442 1442 1442 1442 1442 1442 1442 1442 1442 1442 1442 1442 1442 1442 1443 1443 1443 1443 1443 1444 1444 1444 1444 1444 1444 1444 1444 1444 1444 1445 1445 1445 1446 1446 1447 1447 1448 1448 1449 1449 1450 1451 1451 1452 1453 1454 1454 1455 1456
1431 1432 1433 1434 1434 1435 1435 1436 1436 1437 1438 1438 1439 1439 1440 1440 1440 1441 1441 1441 1442 1442 1441 1441 1441 1441 1441 1441 1441 1441 1441 1442 1442 1442 1442 1442 1442 1443 1443 1443 1443 1443 1444 1444 1444 1444 1444 1444 1444 1445 1445 1445 1446 1446 1447 1447 1447 1448 1448 1449 1449 1450 1451 1451 1452 1453 1454 1454 1455
1429 1430 1431 1432 1433 1433 1434 1434 1435 1436 1436 1437 1437 1438 1438 1439 1439 1440 1440 1441 1441 1441 1441 1441 1441 1441 1441 1441 1441 1441 1441 1441 1441 1441 1441 1442 1442 1442 1442 1443 1443 1443 1443 1444 1444 1444 1444 1444 1444 1445 1445 1445 1446 1446 1447 1447 1447 1448 1448 1449 1449 1450 1450 1451 1451 1452 1453 1454 1454
1427 1428 1429 1430 1431 1431 1432 1433 1434 1434 1434 1435 1435 1436 1437 1437 1438 1439 1439 1439 1440 1440 1440 1440 1440 1440 1440 1440 1440 1440 1440 1440 1441 1441 1441 1441 1441 1442 1442 1442 1442 1443 1443 1443 1443 1444 1444 1444 1444 1445 1445 1446 1446 1446 1447 1447 1447 1448 1448 1449 1449 1449 1450 1450 1451 1452 1452 1453 1454
1425 1426 1427 1428 1429 1429 1430 1431 1432 1432 1433 1433 1434 1434 1435 1436 1437 1437 1438 1438 1439 1439 1440 1440 1440 1440 1440 1440 1440 1440 1440 1440 1440 1440 1440 1441 1441 1441 1441 1442 1442 1442 1443 1443 1443 1443 1444 1444 1444 1444 1445 1445 1446 1446 1446 1447 1447 1448 1448 1449 1449 1449 1450 1450 1451 1451 1452 1453 1454
1423 1424 1425 1426 1427 1427 1428 1429 1430 1430 1431 1432 1432 1433 1434 1434 1435 1436 1436 1437 1438 1438 1439 1439 1439 1439 1439 1439 1439 1439 1439 1439 1439 1440 1440 1440 1440 1440 1441 1441 1441 1442 1442 1442 1443 1443 1443 1444 1444 1444 1445 1445 1445 1446 1446 1447 1447 1447 1448 1448 1449 1449 1450 1450 1451 1451 1452 1452 1453
1421 1422 1423 1423 1424 1425 1426 1427 1428 1429 1429 1430 1431 1431 1432 1433 1433 1434 1435 1435 1436 1437 1438 1438 1439 1439 1439 1439 1439 1439 1439 1439 1439 1439 1439 1439 1440 1440 1440 1440 1441 1441 1441 1442 1442 1443 1443 1443 1444 1444 1444 1444 1445 1445 1446 1446 1446 1447 1447 1448 1448 1449 1449 1450 1450 1451 1452 1452 1453
1420 1420 1420 1421 1422 1423 1424 1425 1426 1427 1427 1428 1429 1429 1430 1431 1432 1432 1433 1434 1435 1435 1436 1437 1437 1438 1438 1438 1438 1438 1438 1438 1438 1438 1439 1439 1439 1439 1439 1440 1440 1440 1441 1441 1441 1442 1442 1443 1443 1444 1444 1444 1444 1445 1445 1445 1446 1446 1447 1447 1448 1448 1449 1449 1450 1450 1451 1452 1452
1418 1418 1419 1419 1420 1421 1422 1423 1424 1424 1425 1426 1427 1428 1429 1429 1430 1430 1431 1432 1433 1434 1434 1435 1436 1437 1437 1437 1437 1437 1437 1437 1437 1437 1438 1438 1438 1439 1439 1439 1439 1440 1440 1440 1441 1441 1442 1442 1443 1443 1443 1444 1444 1444 1444 1445 1445 1446 1446 1446 1447 1447 1448 1448 1449 1449 1450 1451 1452
1416 1417 1417 1417 1418 1419 1419 1420 1421 1422 1423 1424 1425 1426 1427 1427 1428 1429 1429 1430 1431 1432 1433 1434 1434 1435 1436 1436 1436 1437 1437 1437 1437 1437 1437 1437 1437 1438 1438 1438 1439 1439 1439 1439 1440 1440 1441 1441 1442 1442 1443 1443 1443 1444 1444 1444 1445 1445 1445 1446 1446 1446 1447 1447 1448 1449 1449 1450 1451
1415 1415 1415 1415 1416 1417 1418 1419 1419 1420 1421 1422 1423 1424 1424 1425 1426 1427 1428 1429 1429 1430 1431 1432 1433 1434 1434 1435 1435 1436 1436 1436 1436 1436 1436 1436 1436 1437 1437 1437 1438 1438 1439 1439 1439 1439 1440 1440 1441 1441 1442 1442 1443 1443 1444 1444 1444 1444 1445 1445 1445 1445 1446 1446 1447 1448 1448 1449 1449
1413 1413 1414 1414 1414 1414 1415 1416 1417 1418 1419 1420 1420 1421 1422 1423 1424 1424 1425 1426 1427 1428 1429 1430 1431 1432 1433 1434 1434 1435 1435 1435 1435 1435 1435 1435 1436 1436 1436 1437 1437 1437 1438 1438 1438 1439 1439 1439 1440 1440 1441 1442 1442 1443 1443 1443 1444 1444 1444 1444 1444 1445 1445 1445 1446 1446 1447 1448 1449
1411 1411 1412 1412 1412 1413 1414 1414 1415 1416 1417 1418 1418 1419 1420 1420 1421 1423 1424 1424 1426 1427 1428 1429 1429 1430 1431 1432 1433 1434 1434 1434 1434 1434 1434 1435 1435 1435 1435 1436 1436 1436 1437 1437 1437 1438 1438 1438 1439 1439 1440 1441 1441 1442 1442 1442 1443 1443 1443 1444 1444 1444 1444 1445 1445 1445 1446 1447 1447
1409 1409 1410 1410 1410 1411 1412 1412 1413 1414 1415 1415 1416 1417 1417 1418 1419 1420 1422 1423 1424 1424 1425 1426 1427 1429 1429 1430 1431 1432 1433 1433 1434 1434 1434 1434 1434 1434 1435 1435 1435 1436 1436 1436 1437 1437 1437 1437 1438 1439 1439 1439 1440 1441 1441 1442 1442 1442 1443 1443 1443 1444 1444 1444 1444 1445 1445 1446 1446
1408 1408 1408 1408 1409 1409 1410 1410 1411 1412 1412 1413 1414 1414 1415 1416 1417 1418 1419 1420 1421 1422 1423 1424 1425 1427 1428 1429 1430 1431 1431 1432 1433 1433 1433 1433 1434 1434 1434 1434 1435 1435 1435 1436 1436 1436 1436 1437 1437 1438 1438 1439 1439 1439 1440 1440 1441 1441 1442 1442 1443 1443 1443 1444 1444 1444 1445 1445 1445
1406 1406 1406 1406 1407 1407 1408 1408 1409 1409 1410 1411 1412 1412 1413 1414 1415 1416 1417 1418 1419 1420 1421 1423 1424 1425 1426 1427 1428 1429 1430 1431 1431 1432 1432 1432 1433 1433 1433 1434 1434 1434 1434 1435 1435 1435 1436 1436 1436 1437 1437 1438 1438 1439 1439 1439 1440 1440 1441 1441 1442 1442 1443 1443 1444 1444 1444 1444 1445
1404 1404 1404 1405 1405 1405 1406 1406 1407 1407 1408 1409 1409 1410 1411 1412 1413 1414 1415 1416 1417 1418 1419 1420 1422 1423 1424 1425 1426 1427 1428 1429 1430 1431 1431 1431 1432 1432 1432 1433 1433 1434 1434 1434 1434 1434 1435 1435 1435 1436 1436 1437 1437 1437 1438 1438 1439 1439 1440 1440 1441 1441 1442 1442 1443 1443 1444 1444 1444
1403 1403 1403 1403 1404 1404 1404 1404 1405 1405 1405 1406 1407 1408 1409 1410 1411 1412 1413 1414 1415 1416 1417 1418 1419 1421 1422 1423 1424 1425 1427 1428 1429 1429 1430 1430 1431 1431 1431 1432 1432 1433 1433 1433 1434 1434 1434 1434 1435 1435 1435 1436 1436 1437 1437 1437 1438 1438 1439 1439 1439 1440 1441 1441 1442 1442 1443 1443 1444
1402 1402 1402 1402 1402 1402 1403 1403 1403 1403 1404 1404 1405 1406 1407 1408 1409 1410 1411 1412 1413 1414 1415 1416 1417 1419 1420 1421 1422 1424 1425 1426 1427 1428 1429 1429 1430 1430 1430 1431 1431 1431 1432 1432 1433 1433 1433 1434 1434 1434 1435 1435 1435 1436 1436 1436 1437 1437 1438 1438 1439 1439 1439 1440 1441 1441 1442 1442 1443
1400 1400 1400 1400 1400 1401 1401 1401 1401 1401 1402 1402 1403 1404 1405 1406 1407 1408 1409 1409 1410 1411 1413 1414 1415 1416 1418 1419 1421 1422 1423 1424 1425 1426 1427 1428 1429 1429 1429 1430 1430 1430 1431 1431 1432 1432 1433 1433 1433 1434 1434 1434 1435 1435 1435 1436 1436 1436 1437 1437 1437 1438 1438 1439 1439 1440 1441 1441 1442
1398 1398 1398 1398 1399 1399 1399 1399 1399 1399 1400 1400 1401 1402 1403 1404 1404 1405 1406 1407 1408 1409 1410 1412 1413 1414 1416 1417 1419 1420 1421 1422 1424 1424 1425 1426 1427 1428 1428 1429 1429 1429 1430 1430 1431 1431 1431 1432 1432 1433 1433 1434 1434 1434 1434 1435 1435 1436 1436 1436 1437 1437 1437 1438 1438 1439 1439 1440 1440
1396 1396 1396 1396 1397 1397 1397 1397 1398 1398 1398 1399 1399 1400 1401 1401 1402 1403 1404 1405 1406 1407 1409 1409 1411 1412 1414 1415 1416 1418 1419 1420 1422 1423 1424 1425 1426 1426 1427 1428 1428 1428 1429 1429 1429 1430 1430 1431 1431 1432 1432 1433 1433 1434 1434 1434 1434 1435 1435 1435 1436 1436 1436 1437 1437 1438 1438 1439 1439
1394 1394 1394 1394 1395 1395 1395 1395 1396 1396 1396 1397 1397 1398 1399 1400 1401 1401 1402 1403 1404 1405 1406 1408 1409 1410 1412 1413 1414 1415 1417 1418 1419 1421 1422 1423 1424 1425 1426 1426 1427 1427 1428 1428 1428 1429 1429 1430 1430 1430 1431 1432 1432 1433 1433 1433 1434 1434 1434 1435 1435 1435 1436 1436 1436 1437 1437 1438 1438
Wind_Speed
10 10 9 9 9 8 8 8 9 9 6 3 4 5 5 5 5 5 5 4 4 3 3 2 1 1 0 1 1 2 2 2 2 2 2 2 2 3 3 4 4 4 4 3 4 4 5 5 6 9 14 18 22 25 26 27 27 27 27 27 27 28 30 33 35 38 39 41 42
9 9 9 9 8 8 7 7 8 8 7 4 3 4 5 6 6 6 6 5 5 4 3 3 2 2 1 1 0 0 1 1 2 2 2 2 3 3 4 4 4 5 5 5 4 3 3 4 5 6 8 13 17 22 25 27 28 28 29 29 30 30 30 32 34 36 38 39 41
9 8 8 8 8 7 6 7 7 8 7 5 4 4 5 6 7 8 7 6 5 4 3 3 3 3 2 2 2 1 1 1 1 2 2 2 2 3 3 4 4 5 5 6 6 5 4 3 4 5 6 8 11 15 20 23 25 27 29 31 32 33 34 35 36 38 39 41 42
8 8 8 8 8 7 6 6 7 7 7 6 5 4 4 5 6 7 7 7 6 5 4 3 3 3 3 3 3 2 2 2 2 2 2 2 2 2 3 3 4 4 5 6 6 6 6 5 4 3 4 6 8 10 13 17 20 23 26 28 31 34 36 38 40 42 44 45 46
9 8 8 8 7 7 6 6 6 7 7 6 5 4 3 3 4 5 6 6 5 5 5 4 4 4 4 4 3 3 3 4 3 3 3 3 3 2 3 3 3 4 4 5 6 6 7 6 6 5 4 4 6 8 9 12 14 16 20 24 27 30 33 37 41 44 47 49 49
10 9 8 8 7 7 6 6 6 7 7 7 7 6 4 3 1 1 3 4 4 4 5 5 4 4 4 4 4 4 4 4 4 4 4 4 4 3 3 3 3 3 3 4 5 6 6 7 7 6 5 4 4 5 7 9 10 12 15 18 21 24 27 31 35 40 44 45 43
11 10 9 8 8 7 6 6 6 6 7 7 7 7 6 5 3 2 0 2 3 3 4 4 5 5 5 5 5 5 5 5 5 5 5 5 5 5 4 4 3 2 3 3 4 5 6 6 7 7 6 6 5 5 5 7 8 10 11 12 15 17 21 24 29 33 35 36 34
12 11 10 9 9 8 7 6 6 6 7 7 7 7 7 5 4 2 1 1 2 2 3 4 4 5 5 5 5 5 6 6 6 6 6 6 6 6 6 5 5 4 3 2 3 4 5 6 7 7 7 6 6 5 5 6 7 8 9 9 10 12 14 18 22 26 30 30 30
13 12 11 10 10 9 8 7 7 6 6 7 7 7 6 6 4 3 2 2 2 3 3 3 3 4 5 5 5 6 6 6 6 6 7 7 7 7 7 7 6 5 4 3 3 3 4 5 6 7 7 7 6 6 6 6 6 7 8 8 8 9 10 12 15 20 25 29 30
13 13 13 12 11 10 10 9 8 7 7 7 7 7 6 6 5 3 2 2 3 3 3 2 3 3 3 4 4 5 5 6 6 6 7 7 7 7 8 8 7 7 6 4 3 3 3 4 5 6 7 7 7 6 6 6 6 7 7 8 8 8 8 9 11 14 19 23 25
14 14 14 13 12 12 11 10 9 8 7 7 7 7 6 6 5 4 3 2 2 2 2 2 2 2 3 3 3 4 4 5 5 6 6 6 7 7 8 8 8 8 7 6 5 4 4 4 4 5 6 7 8 7 7 6 6 6 7 7 8 9 9 8 9 11 13 16 18
15 15 15 14 14 13 12 11 10 9 9 8 8 7 7 6 6 5 4 3 2 2 2 2 2 2 2 2 2 3 3 3 4 4 5 5 6 6 7 8 8 8 8 7 6 5 5 4 5 5 6 6 7 8 8 7 7 6 6 7 8 9 9 9 9 10 11 13 15
17 16 16 15 15 14 13 12 11 10 10 9 9 8 8 7 7 6 5 5 4 3 3 2 2 2 2 2 2 2 3 3 3 3 4 4 4 5 6 7 8 8 8 8 8 7 6 6 6 6 6 6 7 7 8 8 8 7 7 6 7 8 9 10 10 10 11 12 13
18 17 17 16 16 15 14 13 12 11 10 10 9 9 8 8 8 7 7 6 5 4 3 3 3 2 2 2 2 3 3 3 3 3 3 3 3 4 5 5 6 7 8 8 9 8 8 7 7 7 6 6 6 7 8 8 8 8 8 7 7 7 8 9 10 11 12 12 13
20 19 18 17 17 16 15 15 13 12 11 10 10 10 9 9 8 8 8 7 6 5 4 4 3 3 3 3 3 3 3 3 3 3 3 3 3 3 4 4 5 6 7 7 8 8 8 8 8 7 7 7 7 7 7 8 8 9 9 9 8 8 8 9 10 11 12 13 14
21 20 20 19 18 17 17 15 14 13 12 11 10 10 10 9 9 9 8 8 6 6 5 5 4 4 4 3 4 4 4 4 4 4 3 3 3 3 3 4 5 5 6 6 6 7 7 8 8 7 7 7 7 7 7 8 8 9 9 9 9 9 9 9 9 10 11 12 14
22 22 21 20 19 18 17 16 15 14 13 12 11 10 10 9 9 9 9 8 7 6 6 5 5 5 5 5 4 4 4 4 4 4 4 4 3 3 3 3 4 5 5 5 5 5 6 7 7 7 7 7 7 7 7 8 8 8 9 9 10 10 10 10 10 11 11 12 13
22 23 23 22 21 19 18 17 16 15 14 13 12 11 11 10 10 10 9 9 8 7 6 6 6 6 6 6 5 5 5 4 4 4 4 4 4 3 3 3 3 4 5 5 5 5 5 5 6 6 6 6 6 6 7 7 8 8 9 9 10 10 11 11 11 12 12 13 13
21 22 23 23 22 21 19 18 17 16 15 14 13 12 12 11 11 10 10 9 8 7 7 7 7 7 6 6 6 6 5 5 4 4 5 5 5 4 4 3 3 4 4 4 5 5 5 5 5 5 5 5 5 6 6 7 7 8 8 9 9 10 10 11 12 13 13 14 14
19 21 23 24 23 22 20 19 18 17 16 15 15 14 13 12 12 12 11 10 9 8 8 7 7 7 7 7 6 6 6 5 5 5 5 5 5 5 5 5 4 4 4 4 4 5 5 5 5 5 5 5 5 6 6 6 7 7 8 8 8 9 9 10 11 13 14 15 15
18 19 21 23 23 23 22 20 19 18 17 17 16 15 15 14 13 13 12 11 10 10 9 8 8 8 8 7 7 6 6 6 5 5 5 5 6 6 6 6 5 5 4 4 4 4 5 5 5 5 5 5 5 6 6 7 7 7 8 8 8 8 9 9 10 12 13 14 16
18 18 19 21 23 23 23 22 20 19 18 18 17 17 16 16 15 14 13 12 11 10 10 9 9 9 8 8 7 7 6 6 6 5 6 6 6 6 6 7 6 6 5 5 5 5 5 5 5 5 5 5 5 5 6 6 7 7 8 8 8 8 9 9 9 10 12 13 14
18 17 17 19 21 23 23 23 22 21 20 19 19 18 18 17 16 15 15 14 12 11 10 10 9 9 9 8 8 7 7 7 6 6 6 6 6 7 7 7 7 7 7 6 6 5 5 5 5 5 5 5 6 6 5 6 6 6 7 7 8 8 9 9 9 10 10 11 12
18 18 17 17 19 21 23 24 24 23 22 21 20 19 19 18 17 17 16 15 13 12 11 10 10 10 10 9 9 8 8 7 7 7 6 6 6 7 7 8 8 8 8 7 7 7 6 6 6 6 6 6 6 6 6 6 6 6 6 6 7 8 8 9 9 10 10 11 11
18 18 18 17 17 19 21 23 24 24 23 22 21 20 20 19 19 18 17 16 15 13 12 11 11 10 10 10 9 9 8 8 7 7 7 7 6 6 7 8 8 9 9 8 8 8 8 7 7 7 7 7 7 7 7 6 6 6 6 6 6 7 7 8 8 9 9 10 10
19 19 18 18 17 17 19 21 23 24 24 24 23 22 21 20 20 19 18 17 16 14 13 12 11 11 10 10 10 10 9 9 8 7 7 7 6 6 7 7 8 8 9 9 9 9 9 9 9 9 8 8 8 8 7 7 7 7 6 6 6 6 6 7 7 8 9 9 10
19 19 19 19 18 17 17 19 21 23 24 24 24 23 22 21 21 20 19 18 17 16 14 13 12 11 10 10 10 10 10 9 9 8 7 7 7 6 6 7 7 8 8 9 9 10 10 10 10 10 10 9 9 9 9 8 8 8 7 7 7 7 7 7 7 7 8 8 9
21 20 20 19 19 18 17 17 18 20 23 24 25 24 24 23 22 21 20 19 18 17 16 15 13 12 11 10 10 10 10 10 9 8 8 7 7 7 6 6 7 7 8 8 9 9 10 10 11 11 10 10 10 10 10 9 9 9 8 8 7 7 7 7 7 7 8 8 8
22 21 21 21 20 19 18 17 17 18 20 22 24 24 25 24 24 23 21 20 19 18 17 16 14 13 11 10 9 10 10 10 10 9 8 8 8 7 7 7 7 7 7 8 8 9 10 10 10 11 11 11 11 11 11 10 10 10 9 9 8 8 8 8 8 8 8 8 8
23 23 22 22 21 20 19 18 17 16 17 19 21 23 25 25 25 24 23 22 21 20 18 17 16 14 12 10 10 10 10 10 10 10 9 9 8 8 7 7 7 7 7 7 8 8 9 9 10 10 11 11 11 11 11 11 11 11 10 10 10 9 9 9 9 9 8 8 8
24 24 23 23 22 21 21 19 18 17 16 17 19 22 24 25 26 25 25 24 22 21 19 18 17 15 13 12 10 10 10 10 10 10 10 9 9 8 8 7 7 7 7 8 8 8 8 9 9 9 10 10 10 11 11 11 11 11 11 11 11 10 10 10 10 10 9 9 9
24 24 24 23 23 22 21 21 20 18 17 17 18 20 22 24 25 26 25 25 23 22 21 20 18 17 15 13 12 10 10 10 10 10 10 10 10 9 9 8 8 8 8 8 8 8 8 8 8 8 8 9 9 10 10 11 11 12 12 12 12 11 11 11 11 11 10 10 9
23 23 23 23 23 22 22 22 21 20 19 19 18 19 20 22 23 25 25 25 25 24 23 21 20 18 17 15 13 11 10 10 10 10 11 11 11 10 10 9 9 8 8 8 8 8 8 8 8 8 7 8 8 9 10 10 11 11 12 12 12 12 12 12 11 11 11 11 10
21 21 22 22 22 22 22 22 22 22 21 20 20 19 20 21 22 24 25 26 26 25 24 23 21 20 18 16 15 13 12 11 11 11 11 11 11 11 10 10 9 9 9 9 9 9 9 8 8 8 7 7 7 8 9 10 10 11 11 11 12 12 12 12 12 12 12 12 11
19 20 20 20 21 21 22 22 22 22 22 22 21 21 20 21 22 23 24 25 26 26 25 24 23 21 20 18 17 15 14 12 12 12 12 12 12 12 11 11 10 10 10 10 9 9 9 9 9 8 7 7 7 7 8 9 10 10 10 11 11 11 12 12 12 12 12 12 12
18 18 19 19 20 20 21 22 22 23 23 22 22 22 21 22 22 23 23 24 25 26 26 25 24 23 22 20 19 17 16 14 13 12 12 12 12 12 11 11 11 11 11 10 10 10 10 10 9 9 8 7 7 7 8 9 9 9 10 10 10 10 11 11 12 12 12 13 13
19 19 19 19 19 20 20 21 22 23 23 23 22 22 22 22 22 23 23 24 25 26 26 26 26 25 24 22 21 19 17 16 14 13 13 12 12 12 12 12 12 12 11 11 11 11 11 10 10 10 9 8 7 8 8 9 9 9 9 9 9 10 10 11 11 12 12 13 13
21 20 20 20 19 19 20 20 21 22 23 22 22 22 23 23 23 23 24 25 25 26 26 26 26 26 25 24 22 21 19 17 16 14 14 13 12 12 12 12 13 13 12 12 12 12 11 11 11 11 9 8 8 8 9 9 9 9 9 9 9 10 10 10 11 11 12 12 12
22 22 21 20 19 19 19 19 20 21 21 21 22 22 23 23 23 24 24 25 25 25 26 26 26 26 25 25 24 23 21 20 18 16 15 14 13 13 13 13 13 13 13 13 13 12 12 12 12 12 10 9 9 9 10 10 10 10 10 10 10 10 10 10 10 11 11 12 12
21 21 21 20 19 18 18 18 19 19 20 20 21 21 22 22 23 23 24 24 24 24 25 25 25 25 25 25 25 24 23 22 20 18 16 15 14 13 13 13 14 14 14 14 14 13 13 13 13 13 11 10 10 10 11 11 10 10 10 10 10 10 10 10 10 10 11 11 11
20 20 20 19 18 18 17 17 17 18 18 19 20 20 21 21 22 22 23 23 23 23 24 24 25 25 25 25 25 25 24 23 22 20 18 17 15 15 14 14 14 14 15 15 14 14 14 14 14 13 12 11 11 11 11 11 11 10 10 10 11 11 11 11 11 10 11 11 11
Wind_Direction
305 311 317 321 327 331 331 326 326 329 329 296 239 224 217 211 212 214 215 217 224 229 232 232 230 224 56 44 30 14 359 348 340 324 299 271 250 234 223 213 201 190 177 161 138 122 119 129 156 186 202 209 211 211 209 206 205 205 205 206 207 208 208 208 208 208 209 212 214
299 306 312 318 325 331 333 330 329 334 339 334 288 247 227 214 213 214 215 215 218 223 228 235 239 239 243 252 278 324 330 328 327 319 298 275 255 243 235 230 222 215 206 198 188 169 143 126 127 145 172 193 204 208 208 207 206 206 206 207 208 208 208 208 208 210 211 213 215
290 298 305 312 319 327 331 329 328 333 339 339 319 285 251 226 217 215 215 215 216 217 222 235 241 243 242 244 245 251 268 282 299 304 299 283 265 250 241 236 231 226 219 213 209 203 193 172 141 130 138 158 181 194 200 203 203 204 205 207 209 209 210 210 211 212 214 215 217
279 287 295 303 311 319 325 327 326 330 336 341 332 312 284 254 233 225 222 221 217 215 219 228 239 243 243 244 245 247 252 258 266 275 283 281 274 263 252 243 240 233 225 219 216 214 211 206 192 162 140 137 149 166 180 189 194 197 200 203 206 208 210 211 212 213 215 216 218
269 275 283 292 300 310 318 323 322 325 331 338 340 338 326 294 252 238 231 226 219 216 218 224 234 243 247 247 249 249 250 251 254 258 264 269 266 263 256 254 254 247 236 224 219 217 216 214 213 205 185 157 145 147 156 167 176 184 190 195 199 202 204 206 209 211 213 215 216
263 266 271 278 286 296 306 313 315 318 325 333 339 349 5 22 14 240 233 228 223 222 224 227 235 243 250 253 255 256 254 254 252 252 255 259 260 258 256 252 255 260 254 240 226 219 216 215 215 215 211 199 175 159 154 156 160 167 174 181 186 190 194 197 202 206 209 211 212
258 260 263 268 274 282 291 299 306 310 316 325 333 343 359 27 49 60 250 247 239 232 232 235 239 246 253 259 262 264 263 262 258 255 253 254 254 255 255 252 249 252 260 259 246 231 220 216 213 214 215 214 205 189 174 166 162 162 163 167 172 178 183 188 193 198 202 205 207
254 256 258 261 266 271 277 284 291 297 305 314 323 333 345 6 31 44 8 304 279 262 250 245 246 250 255 261 265 267 268 268 267 263 257 254 253 253 253 253 251 247 246 252 257 250 236 223 214 212 213 213 211 205 196 187 178 172 168 165 164 166 172 178 184 189 194 198 203
252 254 255 257 260 264 268 272 277 283 291 299 309 319 330 342 2 19 4 318 302 291 277 265 258 257 259 262 266 268 270 271 271 269 265 259 255 253 252 253 254 253 247 239 244 252 250 239 225 216 212 211 210 206 203 198 193 189 184 178 171 164 162 165 172 180 187 193 199
251 253 254 255 256 259 262 265 268 272 278 284 294 303 313 322 334 348 351 314 301 296 291 284 274 267 266 268 271 273 275 274 273 272 270 265 260 255 252 251 253 254 253 248 241 238 246 248 241 229 220 215 212 210 207 203 200 199 197 194 188 180 170 162 161 168 178 186 192
250 251 253 254 255 256 258 260 263 265 268 274 281 288 296 304 312 319 321 308 295 292 291 288 281 275 273 275 279 282 283 281 277 274 272 269 264 259 254 250 249 251 253 252 248 242 239 242 245 242 235 226 219 216 213 210 206 205 205 205 202 198 191 181 168 163 166 174 181
248 250 251 252 253 254 255 257 259 261 264 267 271 277 282 288 294 299 301 300 291 287 286 285 280 275 275 278 285 289 291 289 285 281 276 272 267 262 257 253 249 247 248 249 249 246 242 239 238 242 243 239 232 226 222 218 215 212 211 212 212 209 205 200 190 178 170 169 171
246 248 249 250 251 253 254 255 256 257 259 262 265 269 272 275 279 283 287 290 289 285 281 279 276 274 270 271 275 281 286 289 292 290 285 280 273 268 263 258 252 247 246 246 245 245 244 240 238 237 239 241 240 236 231 227 224 221 218 217 216 215 212 209 205 198 189 181 177
244 245 246 248 249 251 252 253 254 254 256 258 260 263 264 265 267 270 275 281 285 287 285 280 276 271 266 263 263 266 273 280 288 292 293 290 282 276 270 264 256 250 246 243 243 242 242 242 240 238 236 236 237 237 236 233 231 228 226 222 220 218 216 214 211 208 204 199 194
244 243 244 246 247 248 250 251 253 253 254 255 256 258 258 258 259 262 265 271 277 284 286 285 282 277 271 265 260 259 263 269 275 282 289 293 290 285 278 272 264 255 248 244 241 240 239 239 239 238 237 235 234 235 234 233 232 231 230 229 224 221 218 216 214 211 209 208 205
245 243 243 244 245 246 248 250 251 252 253 253 254 255 255 254 254 256 259 263 269 275 280 284 284 282 278 273 267 263 261 262 265 269 275 282 288 289 284 278 272 263 254 245 240 238 237 236 236 237 236 235 234 234 232 231 228 228 228 229 227 224 220 218 215 213 211 210 209
247 244 243 243 244 245 246 248 250 251 252 253 252 253 253 252 252 253 255 258 261 266 272 277 280 282 282 281 278 272 266 261 258 258 261 267 274 278 280 278 274 268 260 250 241 236 234 234 233 232 232 233 233 233 232 230 227 224 224 224 224 223 220 218 216 214 212 210 210
249 246 244 243 243 244 245 247 249 250 251 252 252 252 251 251 251 251 252 253 255 258 263 268 272 277 281 283 282 281 275 266 258 253 252 254 259 262 266 267 269 268 264 255 244 236 230 227 226 226 225 225 226 226 227 226 224 223 222 221 220 219 218 217 215 214 213 212 211
252 248 246 244 243 243 244 246 247 249 250 251 250 250 250 249 249 250 250 250 252 254 256 259 264 270 275 280 283 284 282 275 263 253 247 246 247 250 251 252 257 260 261 257 250 241 231 223 218 215 213 212 212 213 213 215 216 218 218 217 215 214 214 213 213 213 213 214 214
256 251 247 245 244 244 244 245 247 248 249 249 249 248 248 248 248 249 249 250 250 251 252 254 258 262 267 273 279 282 282 278 270 258 248 244 241 240 239 241 244 247 251 252 250 244 234 224 212 204 199 198 196 195 196 198 202 206 208 210 209 208 207 207 208 210 212 214 215
264 256 250 247 245 244 244 244 245 247 247 248 248 247 247 247 247 247 248 249 249 250 250 251 253 256 260 265 271 275 276 275 270 262 252 245 239 235 234 234 236 238 240 241 242 242 237 227 213 201 193 188 188 186 185 186 190 194 197 198 199 199 199 200 203 206 209 212 214
271 263 255 249 246 244 244 244 244 245 245 245 246 246 245 245 246 246 247 247 247 248 249 250 250 251 253 256 261 264 267 268 267 263 256 248 241 235 233 232 232 232 232 231 233 236 235 230 220 207 196 188 186 185 183 183 185 187 189 191 191 192 193 195 197 200 203 207 211
275 270 262 253 248 245 244 243 243 243 243 244 244 244 244 245 245 245 245 245 245 246 247 248 249 248 248 249 251 254 257 260 262 261 256 250 242 236 232 230 229 228 227 226 226 227 230 230 226 217 206 197 191 188 187 187 187 188 189 190 190 190 190 191 193 195 197 201 204
277 274 269 261 252 247 244 243 243 242 242 243 243 244 244 244 245 245 244 244 244 244 244 246 247 246 245 244 245 246 249 252 255 257 256 251 244 237 232 229 227 226 225 224 222 221 223 225 226 224 218 211 204 199 197 196 195 196 195 195 194 193 193 192 193 194 194 196 198
279 276 273 268 260 252 247 244 243 242 242 243 243 244 244 244 245 245 245 244 244 243 243 244 245 245 244 243 242 242 243 246 249 253 254 253 248 241 234 229 226 225 224 223 221 219 219 220 222 223 223 221 217 213 211 210 208 208 207 205 204 202 201 200 199 198 198 198 198
281 278 275 273 268 261 253 247 244 243 243 243 244 244 245 245 245 245 245 244 244 243 243 244 245 245 244 242 241 240 240 242 245 249 252 253 251 246 238 231 227 224 224 222 221 219 219 218 219 221 223 224 223 223 222 221 220 219 219 217 215 214 212 210 209 207 206 204 203
283 280 277 275 273 269 262 254 248 245 244 243 244 244 245 246 245 245 245 245 244 244 244 244 244 245 245 243 241 240 239 240 242 245 249 252 253 250 243 235 229 225 224 223 221 220 219 219 219 220 221 223 224 225 226 226 226 227 227 226 225 223 222 220 218 216 215 212 210
283 281 279 277 275 273 269 262 254 249 245 244 244 245 246 246 246 246 246 245 245 244 244 244 245 246 246 245 243 241 239 239 239 241 244 248 251 252 248 242 234 229 226 224 223 222 221 220 220 220 220 222 224 226 227 228 228 228 229 230 230 229 228 227 225 224 222 220 217
283 281 279 277 276 274 272 268 262 255 250 247 246 246 246 247 247 247 247 246 245 245 245 245 246 246 246 246 244 242 240 238 238 239 240 243 246 248 249 245 239 234 230 228 226 225 223 222 221 220 220 222 224 225 227 228 228 228 228 230 231 232 232 231 230 229 228 226 224
282 280 279 277 275 273 272 270 267 262 256 250 247 246 246 246 247 247 248 247 247 247 246 246 246 246 247 246 245 244 241 239 238 237 237 237 240 242 244 244 241 237 234 232 231 228 226 225 223 221 220 221 222 224 225 227 228 227 227 227 229 231 233 234 233 232 231 230 229
281 279 278 276 275 273 271 270 269 266 261 254 249 247 246 246 247 248 249 249 249 249 249 248 247 246 246 246 245 244 243 241 239 237 235 234 235 235 238 239 238 237 235 235 233 232 230 228 226 223 220 219 219 221 223 224 225 226 226 226 226 228 231 234 235 234 234 233 232
281 279 277 275 274 272 271 269 269 267 263 258 253 249 247 247 247 248 249 250 250 250 249 248 247 246 246 246 245 245 244 243 240 238 235 232 231 231 232 233 233 233 233 234 233 233 233 231 229 226 221 217 216 218 220 221 223 223 224 224 224 225 227 230 233 235 235 235 235
280 279 277 276 274 272 270 269 268 266 264 261 257 253 250 248 247 247 248 249 249 249 249 248 248 247 247 247 247 246 245 244 242 239 235 232 230 229 228 228 228 229 230 231 232 232 233 233 232 230 224 217 215 216 219 220 221 221 222 223 223 223 224 225 229 232 235 236 236
280 279 277 276 274 272 270 268 267 266 264 262 259 256 252 249 248 247 247 247 248 249 249 249 249 248 248 248 248 248 246 245 243 240 237 233 230 228 226 225 225 225 226 228 229 230 231 232 233 232 227 220 214 216 218 221 221 221 221 221 222 223 223 224 226 230 233 235 237
279 278 277 275 274 272 270 268 267 265 264 262 259 256 253 250 248 247 246 246 247 248 248 249 249 248 248 248 247 247 246 244 243 241 239 236 232 229 226 224 223 223 224 225 226 228 228 229 231 232 229 221 214 215 219 222 223 223 223 222 222 223 223 224 225 227 231 234 235
275 275 275 274 273 272 271 269 267 265 263 260 258 256 253 251 249 247 246 246 246 247 247 247 247 247 247 246 246 246 245 244 243 242 240 238 235 231 227 224 223 223 223 224 225 226 226 227 229 230 229 222 214 213 218 224 227 228 227 226 226 225 225 225 226 227 229 231 233
270 271 272 273 272 271 270 269 268 265 262 259 256 254 252 251 249 247 246 245 245 245 245 245 246 246 245 245 246 246 246 246 245 243 242 241 238 233 229 225 223 222 222 223 223 224 225 226 227 229 227 220 213 212 218 225 229 231 232 231 231 230 229 228 228 228 228 229 230
268 269 271 272 271 271 270 269 267 264 261 258 256 254 252 250 249 247 246 245 245 244 245 244 245 245 245 246 246 247 248 248 247 245 244 242 240 236 231 227 224 223 222 222 223 224 225 225 227 228 226 219 213 214 220 224 229 232 233 234 234 234 233 232 231 229 229 229 228
270 269 270 271 271 270 269 268 266 263 261 259 257 254 252 250 248 247 246 245 245 245 245 245 245 245 245 246 247 248 248 249 248 247 246 243 241 237 233 229 226 223 223 222 222 223 224 226 227 228 227 220 215 216 220 224 227 229 231 233 235 236 236 236 234 232 231 229 228
273 270 269 269 269 269 268 267 266 264 262 260 258 255 253 251 249 248 247 247 246 246 246 246 246 246 246 246 247 248 248 249 248 248 247 245 242 239 235 231 228 225 223 222 222 223 224 226 228 229 228 222 218 218 220 222 224 226 228 230 233 235 237 237 236 235 233 231 229
275 269 265 264 264 265 266 267 268 267 265 262 260 257 255 253 251 250 248 247 247 246 246 245 245 245 245 245 246 247 247 248 248 248 247 246 244 240 237 233 230 227 225 223 223 223 224 227 230 231 229 224 221 219 220 222 223 224 225 228 230 233 235 237 236 235 234 232 230